User: anonymous   Login
Location: ????????
(38.4362°N, 22.8767°E)
Time: 03:00:50
(UTC+00:00)
Language:

SL-08 ROCKET BODY - Orbit

View from above orbital plane
View from above orbital plane
View from above satellite
View from above satellite

Ground track
Ground track

The orbit data is extracted from the following two-line orbital elements,

1 28522U 05002B   24174.61856452  .00000182  00000-0  13355-3 0  9992
2 28522  82.9457 212.0456 0046494 142.8725 217.5671 13.89837906984994
Epoch (UTC): 22 June 2024 14:50:43
Eccentricity: 0.0046494
inclination: 82.9457°
perigee height: 895 km
apogee height: 963 km
right ascension of ascending node: 212.0456°
argument of perigee: 142.8725°
revolutions per day: 13.89837906
mean anomaly at epoch: 217.5671°
orbit number at epoch: 98499

The dashed part of the orbit path shows where the satellite is in the earth's shadow,  

DLR